GFSFLT2_sfc_dewp_159.txt.gz
Dewpoint
32 32 31 30 31 34 37 35 36 41 41 41 43 43 42 41 42 42 41 41 42 44 44 44 43 44 42
33 33 32 33 32 31 30 30 33 37 40 42 43 43 42 41 42 41 41 41 41 42 43 43 43 43 42
33 34 34 33 33 33 32 32 30 35 38 41 42 43 43 42 42 41 41 40 40 40 41 41 41 42 41
33 33 33 33 32 32 32 32 32 31 33 36 36 38 41 42 42 41 41 42 40 41 40 40 40 40 40
34 34 33 32 32 33 32 32 32 32 32 32 31 32 33 38 38 39 41 42 41 40 40 40 40 40 39
33 31 31 30 31 31 32 32 31 34 31 31 31 31 30 31 35 39 39 40 40 40 40 39 39 39 38
34 33 33 33 34 32 31 31 31 32 33 32 31 30 31 29 35 36 37 38 37 38 39 38 39 38 37
32 31 30 30 31 34 34 34 34 33 35 34 34 32 31 31 35 35 37 39 38 37 38 38 39 38 37
33 34 35 34 34 34 33 32 31 30 32 35 34 33 32 31 31 35 37 38 38 36 36 37 38 38 36
31 33 31 30 33 33 33 31 30 31 32 33 33 32 32 33 31 31 34 38 38 37 36 36 37 35 33
32 31 29 29 31 32 32 32 32 32 33 35 34 34 33 29 27 30 32 34 34 34 37 37 36 35 32
31 28 27 28 30 31 32 33 34 33 35 35 34 33 32 30 29 28 31 31 31 28 29 31 33 33 33
28 28 29 30 31 31 31 31 32 34 35 34 35 34 32 31 28 27 28 29 30 30 28 27 27 26 25
26 27 28 29 29 29 29 30 31 30 33 35 34 34 32 32 30 28 29 27 29 28 27 26 26 26 25
27 28 28 29 29 30 30 31 30 30 30 32 32 32 32 32 29 29 29 28 27 26 26 26 26 26 26
28 29 30 29 29 29 29 30 30 30 30 30 30 30 30 31 34 30 30 29 28 29 29 27 25 25 26
29 30 30 29 29 27 28 30 30 30 30 28 30 28 25 24 26 34 28 28 28 28 28 27 25 26 26

GFSFLT2_sfc_dewp_162.txt.gz
Dewpoint
34 34 33 33 33 33 34 34 35 39 41 42 45 45 45 44 44 43 43 44 44 44 44 45 45 45 45
34 34 33 34 34 33 33 32 32 36 39 40 41 44 44 45 45 45 44 43 43 43 43 43 44 45 45
34 34 34 34 33 33 33 33 33 36 38 39 39 40 42 44 44 44 44 44 45 44 43 42 43 44 44
34 34 33 34 34 33 32 33 33 32 34 36 38 38 39 39 42 42 43 43 44 44 43 43 43 42 43
33 34 33 30 29 31 30 31 31 33 33 33 33 33 33 36 37 40 41 42 43 43 43 42 43 42 42
32 32 31 31 30 31 32 31 30 31 31 31 33 32 32 32 35 37 39 40 41 42 43 43 43 43 42
33 32 31 28 27 29 29 31 31 33 33 31 33 32 33 32 37 37 37 39 40 41 41 42 42 43 42
31 29 27 28 28 30 32 34 34 32 33 30 31 31 33 34 36 37 39 38 40 40 39 41 41 41 41
33 31 31 31 32 30 30 28 26 28 30 31 29 29 32 31 33 37 37 37 39 40 39 41 39 40 40
31 32 34 34 34 31 29 29 29 29 28 31 32 31 29 31 32 33 33 36 36 39 41 41 40 39 38
34 32 31 30 29 29 30 31 30 29 31 32 32 32 32 32 30 30 32 32 33 36 41 42 41 40 37
28 27 27 27 28 29 29 31 32 31 30 33 31 31 31 30 30 30 30 32 34 33 35 39 41 41 40
26 26 27 28 28 29 30 30 29 30 31 32 32 33 32 31 31 29 27 30 32 32 32 32 32 30 31
25 25 26 27 27 28 28 28 29 28 30 31 32 33 31 32 32 31 29 27 29 30 31 31 30 31 30
26 26 26 26 26 28 29 29 28 26 28 29 32 33 32 31 30 31 29 29 30 29 29 28 28 28 26
26 27 27 27 28 29 29 29 26 27 28 29 30 30 30 31 34 29 29 29 29 29 28 26 25 26 26
28 28 28 28 28 28 27 27 26 29 29 31 30 25 20 20 26 33 29 29 29 28 29 28 23 26 26

GFSFLT2_sfc_dewp_165.txt.gz
Dewpoint
35 35 35 35 35 35 35 34 34 38 40 40 41 41 41 43 44 44 43 43 44 45 45 46 46 45 46
33 34 34 35 35 34 34 34 34 36 39 39 40 40 40 41 42 43 45 45 44 44 43 44 45 45 45
33 33 34 34 33 33 33 33 33 36 38 38 37 37 37 38 39 41 43 44 45 45 45 44 44 44 45
32 32 31 32 32 32 32 32 32 32 34 36 37 37 37 38 39 41 41 42 42 43 45 45 45 44 44
31 31 30 29 28 29 28 28 29 32 31 32 32 33 33 36 36 37 37 38 39 41 41 44 44 45 44
28 26 26 27 27 26 26 28 27 30 30 29 32 32 31 32 35 37 37 37 38 38 39 42 42 44 44
30 28 29 29 29 27 29 30 30 30 32 30 30 30 31 30 35 37 38 38 38 38 39 40 41 41 43
30 29 30 28 27 28 32 34 34 32 28 27 29 29 30 31 35 35 36 37 37 38 38 40 40 41 42
32 33 34 35 35 32 33 31 27 24 26 29 28 28 28 29 31 34 34 35 35 37 38 39 40 40 40
32 33 32 33 32 30 30 28 26 26 27 28 27 29 28 28 29 30 32 35 37 37 37 37 39 38 40
29 28 28 28 28 30 29 28 28 27 28 30 29 28 28 29 27 28 31 32 32 33 35 36 37 38 39
26 26 25 26 27 27 28 29 30 30 30 31 30 30 28 27 26 28 30 31 32 32 33 36 38 39 40
26 26 26 27 27 28 28 29 29 29 29 30 31 31 31 29 28 28 30 30 31 32 33 33 33 34 36
26 26 26 26 27 27 28 28 28 28 29 31 30 32 30 30 31 30 31 30 29 30 31 32 32 33 32
26 26 26 26 27 27 28 28 28 26 26 27 29 31 32 31 29 30 30 29 28 29 30 29 30 31 31
27 27 27 27 27 28 29 28 27 25 26 27 29 30 29 30 33 29 29 27 29 30 29 27 27 28 29
27 27 27 27 28 25 24 26 25 25 25 28 29 28 17 19 23 32 29 28 28 28 28 27 26 27 26

GFSFLT2_sfc_dewp_168.txt.gz
Dewpoint
33 34 34 35 35 35 36 35 35 39 39 38 39 39 40 41 42 42 43 44 45 46 46 46 47 47 46
32 33 33 34 35 35 34 34 34 36 39 39 38 38 38 37 38 39 40 41 42 44 45 46 46 47 47
30 31 32 32 33 33 33 34 34 35 35 36 37 37 38 38 38 38 38 39 40 41 42 44 45 45 45
30 30 30 31 32 31 28 29 27 28 30 33 34 34 35 35 35 36 37 37 37 38 39 42 42 42 45
30 28 27 26 26 28 26 26 26 27 27 29 30 29 31 34 35 36 35 35 36 37 38 38 38 40 41
30 29 28 28 28 28 26 27 25 29 28 29 32 31 31 31 33 34 35 35 35 36 35 37 38 38 39
26 28 28 29 29 31 30 29 29 30 31 31 30 28 27 27 33 34 35 35 35 35 35 37 37 38 38
30 31 31 30 31 33 34 32 29 31 34 27 25 24 27 30 34 34 34 34 35 35 35 34 36 37 38
34 34 33 33 31 28 26 26 23 24 26 25 25 28 28 27 28 32 34 35 35 33 34 35 36 37 37
32 30 31 31 32 29 28 26 26 25 27 27 26 28 25 26 26 29 29 32 32 34 35 35 35 34 35
26 26 27 27 28 28 28 28 27 26 27 29 29 28 28 26 26 26 27 28 29 31 34 34 35 35 35
25 24 26 27 27 27 27 29 29 29 29 29 28 28 27 25 24 25 26 28 29 30 31 33 35 36 36
23 25 25 26 27 28 28 28 29 29 29 29 31 30 29 27 26 26 27 28 29 30 30 32 33 34 33
25 25 26 26 27 27 28 27 28 27 29 30 30 31 28 28 29 28 29 28 30 30 31 31 33 33 32
25 25 25 25 26 27 27 27 26 25 26 26 28 29 30 30 28 28 29 29 31 30 29 27 29 31 32
26 26 26 26 26 25 28 24 23 24 24 25 25 26 26 26 32 28 29 29 30 30 29 26 28 30 31
23 23 23 23 23 23 22 24 24 23 24 24 26 26 23 14 22 30 29 29 28 28 29 28 27 29 29

GFSFLT2_sfc_dewp_171.txt.gz
Dewpoint
28 30 31 31 32 33 35 34 34 37 38 38 39 39 39 40 40 40 40 41 42 43 45 48 49 48 48
29 30 31 32 32 32 32 31 31 33 36 37 36 37 37 38 38 39 39 39 39 40 41 42 45 46 48
30 31 30 30 31 31 31 30 29 34 33 33 33 34 35 35 35 36 37 36 37 37 39 41 42 43 44
30 29 28 29 30 29 28 29 28 25 28 30 32 33 34 35 35 34 34 35 35 36 36 37 38 39 41
29 30 28 27 26 29 29 28 30 30 29 29 28 29 31 33 33 32 33 33 35 36 37 37 36 37 38
28 26 26 28 28 28 30 29 28 32 34 31 31 31 32 32 31 32 32 34 34 34 35 35 37 38 38
29 28 29 28 31 31 32 32 28 27 27 29 29 28 27 24 30 32 33 33 34 34 35 35 35 34 37
30 29 30 32 31 30 31 30 28 25 25 26 25 25 26 27 31 32 33 33 33 33 35 36 35 34 37
30 32 33 30 29 29 29 28 25 23 24 26 25 27 27 27 27 30 31 32 31 32 33 33 33 34 35
24 25 27 27 30 29 29 26 27 26 24 27 26 27 25 24 25 27 27 30 31 32 33 33 33 33 34
25 25 25 25 26 28 28 28 27 26 27 29 29 28 28 28 25 26 28 29 30 31 32 33 33 34 34
23 22 24 26 27 28 29 30 30 30 30 31 30 29 28 28 26 25 28 29 31 31 31 32 33 34 36
23 24 26 28 28 29 30 30 30 30 29 31 31 31 31 29 28 28 27 28 32 32 32 32 32 33 32
24 25 26 27 27 28 27 28 26 28 30 30 32 32 29 29 29 28 28 29 31 32 33 31 31 32 34
25 26 24 24 25 26 27 27 26 25 26 26 30 30 30 29 28 28 28 28 30 32 31 29 30 32 32
24 24 24 24 24 25 26 25 23 24 26 27 28 27 28 29 30 30 29 28 28 30 30 29 29 31 31
24 24 24 23 23 23 24 24 24 24 26 28 27 26 23 22 25 27 30 30 27 27 28 29 28 30 31

GFSFLT2_sfc_dewp_174.txt.gz
Dewpoint
24 26 28 29 29 31 32 31 31 34 35 36 36 36 37 37 38 38 39 40 41 41 41 42 43 43 45
28 29 29 30 30 29 27 26 27 30 33 34 35 33 34 35 35 36 36 36 37 40 41 41 42 42 42
28 29 30 29 30 29 27 27 24 30 31 31 32 34 34 34 35 35 35 35 36 35 35 36 37 40 41
28 27 27 27 26 26 26 27 27 25 29 32 33 33 33 33 33 33 34 34 33 34 34 35 36 37 38
26 26 25 24 25 26 27 28 28 30 30 28 27 28 29 31 31 32 33 32 33 34 34 35 36 38 38
26 24 24 25 26 27 29 30 28 28 27 27 25 25 25 25 29 30 31 32 33 34 34 34 36 37 37
26 24 23 24 28 31 30 29 28 27 26 27 24 25 25 23 29 30 31 32 33 33 33 34 35 35 35
24 25 26 26 27 27 29 29 28 25 25 26 24 25 26 27 29 30 31 31 32 32 32 33 33 34 37
29 30 29 29 28 27 28 27 25 22 24 25 24 25 26 26 24 28 29 30 31 32 33 33 32 33 33
25 24 24 24 26 26 28 28 27 26 23 26 25 27 25 25 25 26 26 29 31 31 32 32 33 32 33
22 22 22 22 23 26 27 28 29 28 27 29 30 29 28 27 25 26 27 28 31 30 31 31 31 32 33
23 22 23 26 27 27 28 29 29 29 28 29 30 30 27 27 26 27 28 30 29 31 34 34 33 33 34
23 24 25 27 28 29 29 29 30 30 26 30 30 31 30 29 28 28 27 28 31 33 33 33 32 31 31
24 24 25 26 26 27 27 27 28 28 29 30 31 31 29 29 29 27 29 28 29 30 32 30 30 34 34
25 24 23 24 24 25 26 27 25 25 26 28 31 32 31 30 27 27 29 28 29 29 29 28 30 33 31
24 24 24 25 24 25 26 24 24 24 26 28 29 29 28 30 30 30 29 30 31 30 28 29 27 30 29
24 26 26 24 23 22 23 25 24 24 26 28 28 27 24 22 26 29 29 29 30 28 28 27 26 27 27

GFSFLT2_sfc_dewp_177.txt.gz
Dewpoint
29 30 30 30 31 31 31 30 30 33 33 33 34 34 35 35 35 36 37 37 37 38 39 39 43 44 44
29 30 31 30 29 30 29 26 27 30 32 33 33 33 35 35 35 36 36 35 36 36 36 38 39 39 40
29 29 28 29 29 29 28 28 26 31 31 32 34 34 33 33 33 33 34 34 34 35 35 34 35 36 37
27 27 28 28 28 27 26 28 28 27 30 32 32 31 31 31 31 31 31 33 35 35 33 34 34 35 36
28 28 27 25 25 26 26 28 29 30 27 28 27 27 27 29 29 30 31 31 32 33 34 35 35 36 35
28 26 24 24 24 26 27 26 25 27 27 26 27 26 26 26 29 30 31 31 32 32 32 33 34 35 36
25 23 23 25 26 26 26 27 26 26 27 25 27 25 25 24 29 30 31 31 31 32 32 33 33 34 34
25 24 26 29 29 27 28 27 26 25 26 23 24 24 25 26 30 30 30 30 31 31 32 32 33 33 34
29 30 30 28 27 25 26 27 24 23 25 24 24 25 26 26 26 28 29 30 30 31 31 33 34 34 34
26 24 25 24 27 26 27 25 24 23 24 26 27 27 25 26 26 26 27 30 30 31 31 32 32 31 32
24 23 23 24 24 26 26 26 26 24 26 26 26 26 26 26 25 25 27 27 28 29 31 33 34 33 31
22 22 23 25 26 27 27 28 29 28 28 28 29 27 27 26 24 24 26 27 29 28 31 32 33 33 33
23 24 24 26 26 26 27 26 27 27 26 28 28 27 27 25 25 25 25 26 29 31 30 30 30 30 31
23 23 25 24 24 25 25 25 25 24 25 27 27 28 28 27 27 26 25 25 28 30 29 29 28 29 33
24 23 23 23 23 24 24 25 24 23 23 25 26 28 28 27 26 25 26 28 28 29 30 28 28 28 32
24 24 24 25 24 24 24 24 23 23 22 24 26 26 24 25 27 26 26 27 27 27 28 27 26 27 26
23 23 25 24 23 23 23 24 22 22 23 25 25 24 22 19 22 25 24 25 26 27 27 28 27 26 26

GFSFLT2_sfc_dewp_183.txt.gz
Dewpoint
29 30 29 28 28 29 30 30 31 33 34 34 35 35 35 35 36 35 34 35 35 35 35 35 37 39 40
28 29 28 28 28 28 29 27 28 30 33 32 33 33 34 34 34 33 33 33 33 34 35 34 34 34 36
27 28 28 28 28 28 26 27 27 30 29 31 31 32 32 32 32 32 31 31 32 33 34 35 35 36 35
28 27 28 28 27 24 25 27 27 25 27 28 30 31 31 31 30 30 31 32 33 33 33 35 34 35 36
28 27 27 25 23 25 25 28 26 26 26 25 26 27 28 29 29 30 30 32 33 35 36 34 33 34 34
27 25 23 23 24 25 28 27 24 26 26 25 26 25 25 25 29 30 31 32 33 31 32 32 33 34 35
26 23 23 25 26 26 25 24 25 26 26 22 23 22 24 25 30 30 31 32 31 30 31 33 33 33 34
27 27 27 27 25 24 25 27 26 24 23 21 22 22 24 25 30 29 30 30 30 30 32 32 32 33 34
28 28 28 27 26 25 24 23 22 22 23 23 23 24 24 24 24 28 28 29 29 30 31 31 31 33 33
24 25 25 25 27 26 25 24 23 21 23 24 24 25 22 24 25 25 26 29 29 30 31 31 32 30 30
24 23 23 24 24 25 25 25 24 23 24 24 24 25 26 23 23 23 24 25 26 27 30 31 32 31 29
22 23 23 24 24 25 25 25 26 25 25 25 24 25 22 21 21 23 23 25 26 26 26 29 31 32 31
24 23 23 24 24 25 25 25 25 25 24 25 24 24 24 22 22 22 23 24 25 23 26 27 28 28 28
24 22 23 23 22 23 23 24 22 22 24 25 25 24 21 23 23 22 23 23 25 25 26 26 26 27 28
25 22 22 22 21 22 23 23 20 19 20 22 23 24 24 23 22 22 22 23 24 23 23 24 24 26 27
25 23 21 20 20 23 20 21 21 20 19 19 20 18 18 18 21 19 19 19 21 22 24 22 21 23 25
24 21 20 21 20 19 19 20 19 19 18 19 10 10 14 12 17 19 19 20 21 20 21 21 21 22 22

GFSFLT2_sfc_dewp_186.txt.gz
Dewpoint
29 30 28 28 28 29 30 27 29 32 33 34 34 34 34 34 34 34 35 35 35 35 35 36 37 38 38
28 28 27 28 28 27 25 25 27 30 33 31 31 32 32 33 33 32 32 33 33 33 35 36 36 36 38
27 28 28 28 28 27 25 26 26 31 30 30 31 31 31 32 32 31 31 32 33 33 33 33 34 37 35
28 28 27 28 26 24 24 26 27 28 28 28 30 29 30 31 30 30 31 31 32 33 36 34 35 35 34
27 27 26 24 23 25 25 27 26 27 25 26 25 25 25 27 27 30 30 31 32 35 33 31 33 33 35
26 25 23 23 24 25 26 23 23 26 25 24 24 23 23 24 28 30 30 30 32 35 32 31 32 35 33
26 25 24 25 26 25 23 23 24 25 25 22 23 22 23 23 29 30 29 29 30 30 31 30 32 32 33
27 26 26 27 25 24 26 25 25 23 24 21 22 22 23 25 29 29 29 28 29 30 30 31 31 32 33
28 27 27 27 26 25 23 22 20 20 21 25 23 22 22 22 25 27 29 28 29 30 31 30 31 32 33
23 24 25 24 26 24 24 21 21 20 23 23 22 23 20 23 24 22 24 27 29 30 30 30 31 29 31
23 23 23 23 24 24 24 24 22 22 23 25 21 22 24 22 22 22 22 24 24 26 29 30 30 29 28
22 23 23 22 23 24 24 25 25 25 25 25 23 23 21 19 19 21 21 23 25 25 25 28 30 30 30
22 24 23 23 24 24 24 24 25 25 24 25 23 22 21 21 19 19 21 21 23 22 24 25 25 25 26
23 24 23 23 22 22 21 23 22 21 23 24 24 23 17 21 21 20 21 20 22 23 24 24 23 25 25
23 23 23 23 21 21 21 20 17 19 19 21 22 23 22 21 18 18 19 20 20 22 21 21 22 23 23
21 22 23 22 21 21 19 12 17 18 17 19 18 18 13 16 21 18 18 18 19 20 21 20 19 21 21
20 19 21 21 20 17 17 18 17 16 17 18 11 4 13 12 17 20 18 19 19 20 20 19 19 20 21